Date_and_time,latitude,longitude,wind_speed,RelWindDirFrom,WindDirFrom,air_pressure,air_temperature,relative_humidity,Temp,platform_speed_wrt_ground,air_pressure_at_mean_sea_level,platform_orientation
2018-06-26 23:50,50.9117433333333,-96.98252,14.2,17.0,150,979.58,23.9,71,21.67,0.0,1005.01,227.9
2018-06-27 00:00,50.91174,-96.98251,14.8,18.1,154,979.56,23.5,71,21.70,0.0,1005.00,54.2
2018-06-27 00:10,50.911725,-96.98255,14.5,16.6,155,979.55,23.9,68,21.71,0.0,1004.98,54.2
2018-06-27 00:20,50.91174,-96.9825266666667,13.2,15.3,156,979.57,23.6,70,21.73,0.0,1005.00,54.2
2018-06-27 00:30,50.9117416666667,-96.9825166666667,12.6,16.0,161,979.43,24.1,67,21.74,0.0,1004.83,54.2
2018-06-27 00:40,50.9117333333333,-96.9825433333333,13.3,17.4,164,979.33,24.3,66,21.75,0.0,1004.71,54.2
2018-06-27 00:50,50.9117316666667,-96.9825166666667,12.2,16.7,165,979.39,24.1,68,21.76,0.0,1004.79,54.2
2018-06-27 01:00,50.9117283333333,-96.982525,10.6,14.3,163,979.34,23.8,70,21.76,0.0,1004.71,360.0
2018-06-27 01:10,50.91173,-96.982525,9.8,13.0,162,979.45,23.4,71,21.75,0.0,1004.82,360.0
2018-06-27 01:20,50.911735,-96.982525,9.0,11.5,170,979.73,23.5,69,21.74,0.0,1005.10,360.0
2018-06-27 01:30,50.9117333333333,-96.9825233333333,8.6,12.1,171,979.79,23.8,67,21.72,0.0,1005.15,360.0
2018-06-27 01:40,50.9117116666667,-96.982515,7.6,10.5,163,979.82,23.4,70,21.71,0.0,1005.23,360.0
2018-06-27 01:50,50.9117483333333,-96.9825166666667,7.2,9.9,162,979.77,23.1,71,21.70,0.0,1005.21,360.0
2018-06-27 02:00,50.9117066666667,-96.9825316666667,6.1,8.4,172,979.91,23.0,72,21.68,0.0,1005.33,360.0
2018-06-27 02:10,50.9117416666667,-96.982545,4.1,6.7,189,980.19,23.1,72,21.67,0.0,1005.64,360.0
2018-06-27 02:20,50.91173,-96.9825333333333,3.7,7.6,184,980.32,23.4,70,21.65,0.0,1005.74,360.0
2018-06-27 02:30,50.911725,-96.98253,12.3,27.0,265,980.61,24.1,59,21.64,0.0,1005.99,360.0
2018-06-27 02:40,50.911725,-96.9825316666667,14.6,22.2,275,981.30,22.3,63,21.62,0.0,1006.79,360.0
2018-06-27 02:50,50.911725,-96.9825333333333,11.7,20.1,272,981.63,20.5,74,21.59,0.0,1007.22,360.0
2018-06-27 03:00,50.9117366666667,-96.9825366666667,5.3,8.0,284,981.71,19.0,90,21.54,0.0,1007.38,246.1
2018-06-27 03:10,50.911735,-96.982525,1.5,4.8,209,981.65,18.7,92,21.51,0.0,1007.33,246.1
2018-06-27 03:20,50.9117366666667,-96.98252,3.4,5.8,156,981.37,18.9,91,21.47,0.0,1007.02,246.1
2018-06-27 03:30,50.9117233333333,-96.9825266666667,6.8,10.3,126,980.75,19.3,90,21.44,0.0,1006.38,246.1
2018-06-27 03:40,50.91172,-96.9825283333333,11.4,17.7,171,980.91,19.2,90,21.41,0.0,1006.57,246.1
2018-06-27 03:50,50.9117216666667,-96.982525,12.6,16.3,180,980.91,19.4,84,21.36,0.0,1006.56,246.1
2018-06-27 04:00,50.911725,-96.982525,13.3,17.3,162,980.81,19.3,82,21.30,0.0,1006.46,360.0
2018-06-27 04:10,50.9117233333333,-96.98251,12.4,14.7,158,980.72,19.1,90,21.26,0.0,1006.37,360.0
2018-06-27 04:20,50.9117233333333,-96.9825216666667,12.4,14.4,157,980.25,18.8,92,21.22,0.0,1005.86,360.0
2018-06-27 04:30,50.9117316666667,-96.9825333333333,13.1,15.7,153,979.75,18.8,92,21.19,0.0,1005.42,360.0
2018-06-27 04:40,50.911725,-96.9825233333333,10.9,15.2,151,979.73,19.2,93,21.16,0.0,1005.47,360.0
2018-06-27 04:50,50.911735,-96.98252,10.6,14.9,158,979.93,19.4,93,21.16,0.0,1005.73,360.0
2018-06-27 05:00,50.9117316666667,-96.98252,13.0,16.9,163,979.78,19.4,93,21.14,0.0,1005.59,11.7
2018-06-27 05:10,50.9117216666667,-96.9825316666667,13.6,16.9,154,979.64,19.4,94,21.12,0.0,1005.45,11.7
2018-06-27 05:20,50.9117266666667,-96.9825316666667,7.7,12.1,158,979.75,19.5,95,21.12,0.0,1005.53,11.7
2018-06-27 05:30,50.9117266666667,-96.98253,3.5,6.5,196,980.18,19.5,99,21.12,0.0,1005.98,11.7
2018-06-27 05:40,50.91173,-96.9825316666667,4.0,6.8,223,980.36,18.9,100,21.12,0.0,1006.18,11.7
2018-06-27 05:50,50.9117316666667,-96.9825316666667,4.1,6.8,231,980.55,18.4,100,21.11,0.0,1006.40,11.7
2018-06-27 06:00,50.91173,-96.98253,4.7,10.0,219,980.54,18.2,98,21.08,0.0,1006.40,170.2
2018-06-27 06:10,50.91173,-96.98253,5.0,8.0,230,980.78,18.5,93,21.05,0.0,1006.65,170.2
2018-06-27 06:20,50.91172,-96.9825566666667,4.8,7.6,246,980.97,18.5,94,21.03,0.0,1006.84,170.2
2018-06-27 06:30,50.9117033333333,-96.9825366666667,6.8,11.5,254,980.96,18.4,97,21.01,0.0,1006.82,170.2
2018-06-27 06:40,50.9117233333333,-96.9825233333333,6.6,11.9,231,980.93,18.1,99,20.99,0.0,1006.80,170.2
2018-06-27 06:50,50.9117216666667,-96.982525,8.1,14.7,214,981.05,17.8,100,20.95,0.0,1006.93,170.2
2018-06-27 07:00,50.91172,-96.982525,6.7,13.1,213,980.86,17.6,100,20.91,0.0,1006.75,360.0
2018-06-27 07:10,50.91172,-96.9825266666667,7.5,12.8,203,980.37,17.5,100,20.87,0.0,1006.25,360.0
2018-06-27 07:20,50.9117216666667,-96.982525,8.0,14.1,199,980.32,17.4,100,20.84,0.0,1006.20,360.0
2018-06-27 07:30,50.9117216666667,-96.982525,9.4,13.6,197,980.26,17.5,100,20.81,0.0,1006.16,360.0
2018-06-27 07:40,50.9117216666667,-96.9825266666667,9.0,12.9,188,979.97,17.5,100,20.78,0.0,1005.89,360.0
2018-06-27 07:50,50.9117233333333,-96.9825283333333,12.6,16.1,176,979.65,17.9,100,20.76,0.0,1005.55,360.0
2018-06-27 08:00,50.911725,-96.9825266666667,15.2,17.6,172,979.32,18.1,100,20.73,0.0,1005.18,227.9
2018-06-27 08:10,50.9117416666667,-96.9825466666667,13.8,17.3,177,979.39,18.5,97,20.70,0.0,1005.24,227.9
2018-06-27 08:20,50.9117366666667,-96.982535,9.9,13.1,184,979.69,18.6,97,20.68,0.0,1005.55,227.9
2018-06-27 08:30,50.9117316666667,-96.9825333333333,9.7,14.1,184,979.66,18.9,93,20.68,0.0,1005.52,227.9
2018-06-27 08:40,50.9117316666667,-96.9825316666667,9.8,13.0,181,979.53,18.6,98,20.68,0.0,1005.41,227.9
2018-06-27 08:50,50.9117316666667,-96.98253,8.3,11.2,186,979.49,18.4,98,20.67,0.0,1005.39,227.9
2018-06-27 09:00,50.9117316666667,-96.9825266666667,10.6,13.9,182,979.42,18.5,98,20.67,0.0,1005.32,0.0
2018-06-27 09:10,50.9117233333333,-96.9825283333333,9.4,13.3,185,979.41,18.6,99,20.65,0.0,1005.31,0.0
2018-06-27 09:20,50.9117316666667,-96.9825383333333,6.6,10.6,192,979.18,18.3,99,20.65,0.0,1005.08,0.0
2018-06-27 09:30,50.9117266666667,-96.982535,6.5,9.4,186,979.10,18.2,99,20.65,0.0,1005.00,0.0
2018-06-27 09:40,50.911725,-96.9825333333333,5.4,8.6,199,979.15,18.1,99,20.64,0.0,1005.04,0.0
2018-06-27 09:50,50.9117233333333,-96.98253,6.4,8.6,185,979.17,18.1,99,20.63,0.0,1005.05,0.0
2018-06-27 10:00,50.9117166666667,-96.9825233333333,5.8,9.8,195,979.41,18.1,100,20.62,0.0,1005.28,132.1
2018-06-27 10:10,50.9117133333333,-96.9825266666667,4.8,8.1,204,979.54,18.1,100,20.61,0.0,1005.41,132.1
2018-06-27 10:20,50.9117233333333,-96.9825216666667,5.2,7.7,193,979.59,18.1,100,20.60,0.0,1005.45,132.1
2018-06-27 10:30,50.91172,-96.9825216666667,4.6,7.1,199,979.51,18.0,100,20.60,0.0,1005.38,132.1
2018-06-27 10:40,50.911725,-96.9825166666667,4.4,7.2,196,979.45,18.0,100,20.59,0.0,1005.34,132.1
2018-06-27 10:50,50.911735,-96.9825116666667,4.0,6.6,196,979.40,17.9,100,20.59,0.0,1005.28,132.1
2018-06-27 11:00,50.911725,-96.982515,3.0,4.8,200,979.39,17.8,100,20.58,0.0,1005.27,90.0
2018-06-27 11:10,50.9117283333333,-96.9825183333333,2.9,5.4,208,979.44,17.7,100,20.58,0.0,1005.34,90.0
2018-06-27 11:20,50.91173,-96.9825216666667,3.0,5.3,232,979.48,17.7,100,20.57,0.0,1005.39,90.0
2018-06-27 11:30,50.9117283333333,-96.9825216666667,3.3,5.5,240,979.52,17.6,100,20.55,0.0,1005.43,90.0
2018-06-27 11:40,50.9117283333333,-96.9825233333333,3.7,6.1,240,979.73,17.6,100,20.54,0.0,1005.65,90.0
2018-06-27 11:50,50.9117283333333,-96.982525,4.1,5.9,262,979.70,17.7,100,20.53,0.0,1005.61,90.0
2018-06-27 12:00,50.91174,-96.9825216666667,3.8,7.0,249,979.72,17.7,100,20.52,0.0,1005.64,360.0
2018-06-27 12:10,50.9117383333333,-96.9825266666667,3.7,6.9,241,979.78,17.8,100,20.51,0.0,1005.69,360.0
2018-06-27 12:20,50.9117466666667,-96.982505,4.0,6.1,246,979.75,17.8,100,20.50,0.0,1005.66,360.0
2018-06-27 12:30,50.9117316666667,-96.9825216666667,3.6,5.5,248,979.83,17.9,100,20.48,0.0,1005.75,360.0
2018-06-27 12:40,50.9117316666667,-96.9825283333333,3.4,6.2,251,979.92,18.0,100,20.48,0.0,1005.84,360.0
2018-06-27 12:50,50.91173,-96.9825233333333,3.8,7.0,255,979.89,18.0,100,20.47,0.0,1005.81,360.0
2018-06-27 13:00,50.911735,-96.98254,2.7,4.8,245,979.78,18.1,100,20.47,0.0,1005.70,347.1
2018-06-27 13:10,50.911695,-96.98252,1.9,4.7,228,979.70,18.3,100,20.46,0.0,1005.61,347.1
2018-06-27 13:20,50.91175,-96.9824766666667,1.4,3.5,223,979.69,18.8,100,20.46,0.0,1005.57,347.1
2018-06-27 13:30,50.9117266666667,-96.9825516666667,3.1,6.4,197,979.61,19.4,99,20.47,0.0,1005.47,347.1
2018-06-27 13:40,50.911725,-96.9825366666667,3.4,5.8,224,979.60,19.9,97,20.47,0.0,1005.44,347.1
2018-06-27 13:50,50.911725,-96.9825333333333,2.9,5.7,227,979.62,20.3,95,20.48,0.0,1005.44,347.1
2018-06-27 14:00,50.911725,-96.9825316666667,2.9,6.2,215,979.65,20.8,91,20.49,0.0,1005.44,270.0
2018-06-27 14:10,50.911725,-96.9825333333333,3.7,9.6,246,979.62,21.3,89,20.52,0.0,1005.38,270.0
2018-06-27 14:20,50.9117233333333,-96.9825316666667,5.4,9.0,245,979.61,21.5,86,20.58,0.0,1005.36,270.0
2018-06-27 14:30,50.9117233333333,-96.9825283333333,5.8,8.8,253,979.60,21.7,84,20.67,0.0,1005.33,270.0
2018-06-27 14:40,50.9117233333333,-96.9825316666667,5.7,9.9,261,979.58,21.9,84,20.77,0.0,1005.30,270.0
2018-06-27 14:50,50.9117216666667,-96.9825283333333,6.1,9.9,265,979.59,22.1,83,20.89,0.0,1005.31,270.0
2018-06-27 15:00,50.9117216666667,-96.98253,6.1,11.0,274,979.66,22.2,83,21.00,0.0,1005.36,360.0
2018-06-27 15:10,50.9117233333333,-96.982475,8.1,10.5,279,979.70,22.1,83,21.11,0.0,1005.39,360.0
2018-06-27 15:20,50.9117233333333,-96.982525,8.3,11.6,294,979.76,22.1,84,21.20,0.0,1005.42,360.0
2018-06-27 15:30,50.9117216666667,-96.9825283333333,7.5,12.0,286,979.80,22.6,79,21.28,0.0,1005.41,360.0
2018-06-27 15:40,50.91173,-96.9825383333333,6.5,11.7,306,979.90,23.3,74,21.38,0.0,1005.48,360.0
2018-06-27 15:50,50.911715,-96.9825283333333,7.6,10.9,288,979.88,22.8,78,21.47,0.0,1005.45,360.0
2018-06-27 16:00,50.9117316666667,-96.9824616666667,6.3,9.9,297,979.95,22.9,74,21.54,0.0,1005.50,96.5
2018-06-27 16:10,50.9117133333333,-96.9825083333333,5.3,9.6,313,979.91,23.6,69,21.58,0.0,1005.42,96.5
2018-06-27 16:20,50.9117166666667,-96.9825183333333,7.1,12.9,328,979.86,23.6,69,21.64,0.0,1005.36,96.5
2018-06-27 16:30,50.9117183333333,-96.9825216666667,4.1,8.0,333,979.90,23.6,67,21.68,0.0,1005.39,96.5
2018-06-27 16:40,50.9117183333333,-96.9825216666667,5.4,10.4,346,979.90,24.2,63,21.73,0.0,1005.35,96.5
2018-06-27 16:50,50.9117183333333,-96.9825216666667,3.4,7.6,355,979.89,23.7,62,21.78,0.0,1005.36,96.5
2018-06-27 17:00,50.91172,-96.982525,5.7,7.2,81,979.87,24.4,71,21.81,0.0,1005.32,360.0
2018-06-27 17:10,50.91171,-96.9825066666667,7.5,8.5,80,979.85,24.3,70,21.80,0.0,1005.30,360.0
2018-06-27 17:20,50.911715,-96.9825466666667,7.6,8.6,82,979.91,24.3,70,21.79,0.0,1005.34,360.0
2018-06-27 17:30,50.9117216666667,-96.9825383333333,6.3,7.3,99,979.96,23.7,73,21.77,0.0,1005.39,360.0
2018-06-27 17:40,50.9117216666667,-96.9825333333333,6.2,7.2,113,979.89,22.9,77,21.71,0.0,1005.38,360.0
2018-06-27 17:50,50.91172,-96.98253,6.9,7.6,92,979.81,23.3,75,21.67,0.0,1005.26,360.0
2018-06-27 18:00,50.91172,-96.9825183333333,7.4,8.2,92,979.77,23.8,73,21.67,0.0,1005.17,90.0
2018-06-27 18:10,50.911735,-96.9825616666667,7.6,8.1,93,979.68,23.6,72,21.69,0.0,1005.09,90.0
2018-06-27 18:20,50.91173,-96.9825416666667,7.9,8.7,93,979.50,23.7,72,21.72,0.0,1004.91,90.0
2018-06-27 18:30,50.9117316666667,-96.9825283333333,7.7,8.5,90,979.33,24.1,69,21.74,0.0,1004.68,90.0
2018-06-27 18:40,50.9117133333333,-96.9825183333333,7.8,8.5,94,979.18,23.7,67,21.76,0.0,1004.57,90.0
2018-06-27 18:50,50.91172,-96.9825183333333,7.2,8.0,96,979.12,23.2,69,21.74,0.0,1004.50,90.0
2018-06-27 19:00,50.91172,-96.9825216666667,6.9,17.6,167,979.41,22.1,73,21.72,0.0,1004.85,254.3
2018-06-27 19:10,50.91172,-96.982525,12.2,19.3,151,979.36,20.7,62,21.64,0.0,1004.86,254.3
2018-06-27 19:20,50.91172,-96.9825233333333,12.6,16.2,153,979.26,20.5,59,21.50,0.0,1004.79,254.3
2018-06-27 19:30,50.91172,-96.9825266666667,11.7,14.7,143,979.15,21.9,49,21.47,0.0,1004.65,254.3
2018-06-27 19:40,50.9117216666667,-96.9825266666667,3.0,9.4,144,979.24,22.1,54,21.51,0.0,1004.72,254.3
2018-06-27 19:50,50.9117216666667,-96.9825266666667,3.0,10.0,112,979.36,21.8,55,21.51,0.0,1004.84,254.3
2018-06-27 20:00,50.911725,-96.9825216666667,6.7,11.1,144,979.17,21.8,49,21.46,0.0,1004.65,9.8
2018-06-27 20:10,50.9117266666667,-96.9825183333333,8.7,12.9,136,979.15,21.3,51,21.45,0.0,1004.64,9.8
2018-06-27 20:20,50.9117133333333,-96.982525,8.5,10.9,140,978.93,21.1,54,21.42,0.0,1004.40,9.8
2018-06-27 20:30,50.9117183333333,-96.98252,7.3,8.9,142,978.89,21.6,58,21.41,0.0,1004.36,9.8
2018-06-27 20:40,50.9117183333333,-96.9825233333333,6.0,8.8,136,978.88,21.9,56,21.44,0.0,1004.36,9.8
2018-06-27 20:50,50.9117283333333,-96.9825,4.1,6.0,136,978.86,22.2,57,21.47,0.0,1004.37,9.8
2018-06-27 21:00,50.9117283333333,-96.9825266666667,1.2,4.7,132,978.95,22.8,58,21.50,0.0,1004.50,360.0
2018-06-27 21:10,50.9117266666667,-96.9825283333333,1.7,2.7,95,978.80,24.7,50,21.54,0.0,1004.27,360.0
2018-06-27 21:20,50.9117216666667,-96.982525,2.2,3.2,112,978.72,24.7,50,21.55,0.0,1004.13,360.0
2018-06-27 21:30,50.91172,-96.982525,3.5,4.8,113,978.79,24.4,54,21.56,0.0,1004.21,360.0
2018-06-27 21:40,50.9117183333333,-96.9825433333333,4.0,5.3,117,978.70,23.9,55,21.57,0.0,1004.15,360.0
2018-06-27 21:50,50.911715,-96.9825433333333,4.4,5.4,117,978.69,24.2,55,21.59,0.0,1004.13,360.0
2018-06-27 22:00,50.911715,-96.9825383333333,5.0,6.5,112,978.65,23.9,57,21.62,0.0,1004.12,240.5
2018-06-27 22:10,50.9117383333333,-96.9825316666667,5.8,6.7,118,978.69,23.3,55,21.66,0.0,1004.20,240.5
2018-06-27 22:20,50.9117166666667,-96.9825633333333,8.1,10.7,103,978.62,24.0,56,21.67,0.0,1004.07,240.5
2018-06-27 22:30,50.9117316666667,-96.9825516666667,9.8,12.2,100,978.56,23.7,57,21.70,0.0,1004.01,240.5
2018-06-27 22:40,50.9117333333333,-96.9825133333333,8.9,11.0,102,978.56,23.5,64,21.73,0.0,1004.00,240.5
2018-06-27 22:50,50.91172,-96.98252,8.1,11.3,111,978.57,23.3,62,21.75,0.0,1004.00,240.5
2018-06-27 23:00,50.9117333333333,-96.9825366666667,7.5,13.6,124,978.53,23.2,59,21.77,0.0,1003.89,299.5
2018-06-27 23:10,50.9117216666667,-96.9825283333333,6.9,8.6,106,978.57,23.8,61,21.84,0.0,1003.90,299.5
2018-06-27 23:20,50.9117183333333,-96.9825283333333,6.7,8.9,106,978.54,23.6,61,21.86,0.0,1003.89,299.5
2018-06-27 23:30,50.9117216666667,-96.98253,5.2,5.9,87,978.58,23.8,66,21.87,0.0,1003.94,299.5
